CSAV Lonquen — A8OT2 — position and weather

sailwx.info

Track history (hours):
 
Tides and Currents Weather Stations Pressure Air Temp Water Temp Dewpoint Dewpoint Depression Visibility Wind Speed Wind Dir Waves Ship Positions

CSAV Lonquen

Last reported at 2014-Oct-21 13:34 UTC. Time now 2014-Oct-21 13:40 UTC.
Position N 52°01' E 003°57'.

Length 261 m; draft 9.7 m.

Type: Ship (hazmat cat A). MMSI: 636091501.

Date/timePositionNaut miles runAvg speedWind from/ knotsBaromVisibWave heightAir tempDewpointWater temp
2014-Oct-21 13:34N 52°01' E 003°57'10 9.7
2014-Oct-21 12:33N 52°01' E 003°42'9 8.9
2014-Oct-21 11:33N 51°57' E 003°29'3812.5
2014-Oct-21 08:31N 51°51' E 002°28'1410.3
2014-Oct-21 07:12N 51°52' E 002°07'710.3
2014-Oct-21 06:33N 51°49' E 001°57'9 9.4
2014-Oct-21 05:33N 51°51' E 001°41'10 9.6
2014-Oct-21 04:33N 51°56' E 001°29'7 6.6
2014-Oct-21 03:31N 51°58' E 001°18'0 0.0
2014-Oct-21 02:31N 51°58' E 001°18'0 0.0
2014-Oct-21 01:31N 51°58' E 001°18'0 0.0
2014-Oct-21 00:31N 51°58' E 001°18'0 0.0
2014-Oct-20 23:31N 51°58' E 001°18'0 0.0
2014-Oct-20 22:31N 51°58' E 001°18'0 0.0
2014-Oct-20 21:31N 51°58' E 001°18'0 0.0
2014-Oct-20 20:31N 51°58' E 001°18'0 0.0
2014-Oct-20 19:31N 51°58' E 001°18'0 0.0
2014-Oct-20 18:31N 51°58' E 001°18'0 0.0
2014-Oct-20 17:31N 51°58' E 001°18'0 0.0
2014-Oct-20 16:31N 51°58' E 001°18'0 0.0
2014-Oct-20 15:31N 51°58' E 001°18'0 0.0
2014-Oct-20 14:31N 51°58' E 001°18'0 0.0
2014-Oct-20 13:31N 51°58' E 001°18'0 0.0
2014-Oct-20 12:31N 51°58' E 001°18'0 0.0
2014-Oct-20 11:31N 51°58' E 001°18'0 0.0
2014-Oct-20 10:31N 51°58' E 001°18'0 0.0
2014-Oct-20 09:31N 51°58' E 001°18'0 0.0
2014-Oct-20 08:31N 51°58' E 001°18'0 0.0
2014-Oct-20 07:31N 51°58' E 001°18'0 0.0
2014-Oct-20 06:31N 51°58' E 001°18'2 1.6
2014-Oct-20 05:33N 51°56' E 001°19'1010.4
2014-Oct-20 04:33N 51°52' E 001°34'7 6.5
2014-Oct-20 03:34N 51°51' E 001°45'6 6.3
2014-Oct-20 02:34N 51°45' E 001°49'1312.6
2014-Oct-20 01:34N 51°33' E 001°54'1111.5
2014-Oct-20 00:33N 51°22' E 001°59'1514.6
2014-Oct-19 23:33N 51°10' E 001°45'1615.9
2014-Oct-19 22:33N 50°58' E 001°29'1615.8
2014-Oct-19 21:32N 50°43' E 001°20'  
2014-Oct-17 13:33N 38°03' W 009°41'1818.2
2014-Oct-17 12:33N 37°45' W 009°36'2018.4
2014-Oct-17 11:28N 37°26' W 009°30'20717.0
2014-Oct-16 23:17N 35°58' W 005°37'1114.6
2014-Oct-16 22:33N 36°00' W 005°24'1514.6
2014-Oct-16 21:33N 36°03' W 005°06'25117.7
2014-Oct-16 07:26N 36°54' W 000°01'2418.2
2014-Oct-16 06:08N 36°60' E 000°27'37818.0
2014-Oct-15 09:07N 38°36' E 008°10'3218.9
2014-Oct-15 07:27N 38°44' E 008°49'1718.9
2014-Oct-15 06:33N 38°48' E 009°10'19518.8
2014-Oct-14 20:09N 40°02' E 013°04'1219.0
2014-Oct-14 19:31N 40°07' E 013°18'1818.9
2014-Oct-14 18:33N 40°15' E 013°40'1919.0
2014-Oct-14 17:33N 40°22' E 014°03'37 1.5
2014-Oct-13 16:21N 40°40' E 014°45'2 0.8
2014-Oct-13 13:33N 40°38' E 014°44'13210.8
2014-Oct-13 01:22N 38°33' E 015°35'1416.3
2014-Oct-13 00:31N 38°20' E 015°42'  
Track history (hours):
 
Tides and Currents Weather Stations Pressure Air Temp Water Temp Dewpoint Dewpoint Depression Visibility Wind Speed Wind Dir Waves Ship Positions

CSAV Lonquen

Last reported at 2014-Oct-21 13:34 UTC. Time now 2014-Oct-21 13:40 UTC.
Position N 52°01' E 003°57'.

Length 261 m; draft 9.7 m.

Type: Ship (hazmat cat A). MMSI: 636091501.

Date/timePositionNaut miles runAvg speedWind from/ knotsBaromVisibWave heightAir tempDewpointWater temp
2014-Oct-21 13:34N 52°01' E 003°57'10 9.7
2014-Oct-21 12:33N 52°01' E 003°42'9 8.9
2014-Oct-21 11:33N 51°57' E 003°29'3812.5
2014-Oct-21 08:31N 51°51' E 002°28'1410.3
2014-Oct-21 07:12N 51°52' E 002°07'710.3
2014-Oct-21 06:33N 51°49' E 001°57'9 9.4
2014-Oct-21 05:33N 51°51' E 001°41'10 9.6
2014-Oct-21 04:33N 51°56' E 001°29'7 6.6
2014-Oct-21 03:31N 51°58' E 001°18'0 0.0
2014-Oct-21 02:31N 51°58' E 001°18'0 0.0
2014-Oct-21 01:31N 51°58' E 001°18'0 0.0
2014-Oct-21 00:31N 51°58' E 001°18'0 0.0
2014-Oct-20 23:31N 51°58' E 001°18'0 0.0
2014-Oct-20 22:31N 51°58' E 001°18'0 0.0
2014-Oct-20 21:31N 51°58' E 001°18'0 0.0
2014-Oct-20 20:31N 51°58' E 001°18'0 0.0
2014-Oct-20 19:31N 51°58' E 001°18'0 0.0
2014-Oct-20 18:31N 51°58' E 001°18'0 0.0
2014-Oct-20 17:31N 51°58' E 001°18'0 0.0
2014-Oct-20 16:31N 51°58' E 001°18'0 0.0
2014-Oct-20 15:31N 51°58' E 001°18'0 0.0
2014-Oct-20 14:31N 51°58' E 001°18'0 0.0
2014-Oct-20 13:31N 51°58' E 001°18'0 0.0
2014-Oct-20 12:31N 51°58' E 001°18'0 0.0
2014-Oct-20 11:31N 51°58' E 001°18'0 0.0
2014-Oct-20 10:31N 51°58' E 001°18'0 0.0
2014-Oct-20 09:31N 51°58' E 001°18'0 0.0
2014-Oct-20 08:31N 51°58' E 001°18'0 0.0
2014-Oct-20 07:31N 51°58' E 001°18'0 0.0
2014-Oct-20 06:31N 51°58' E 001°18'2 1.6
2014-Oct-20 05:33N 51°56' E 001°19'1010.4
2014-Oct-20 04:33N 51°52' E 001°34'7 6.5
2014-Oct-20 03:34N 51°51' E 001°45'6 6.3
2014-Oct-20 02:34N 51°45' E 001°49'1312.6
2014-Oct-20 01:34N 51°33' E 001°54'1111.5
2014-Oct-20 00:33N 51°22' E 001°59'1514.6
2014-Oct-19 23:33N 51°10' E 001°45'1615.9
2014-Oct-19 22:33N 50°58' E 001°29'1615.8
2014-Oct-19 21:32N 50°43' E 001°20'  
2014-Oct-17 13:33N 38°03' W 009°41'1818.2
2014-Oct-17 12:33N 37°45' W 009°36'2018.4
2014-Oct-17 11:28N 37°26' W 009°30'20717.0
2014-Oct-16 23:17N 35°58' W 005°37'1114.6
2014-Oct-16 22:33N 36°00' W 005°24'1514.6
2014-Oct-16 21:33N 36°03' W 005°06'25117.7
2014-Oct-16 07:26N 36°54' W 000°01'2418.2
2014-Oct-16 06:08N 36°60' E 000°27'37818.0
2014-Oct-15 09:07N 38°36' E 008°10'3218.9
2014-Oct-15 07:27N 38°44' E 008°49'1718.9
2014-Oct-15 06:33N 38°48' E 009°10'19518.8
2014-Oct-14 20:09N 40°02' E 013°04'1219.0
2014-Oct-14 19:31N 40°07' E 013°18'1818.9
2014-Oct-14 18:33N 40°15' E 013°40'1919.0
2014-Oct-14 17:33N 40°22' E 014°03'37 1.5
2014-Oct-13 16:21N 40°40' E 014°45'2 0.8
2014-Oct-13 13:33N 40°38' E 014°44'13210.8
2014-Oct-13 01:22N 38°33' E 015°35'1416.3
2014-Oct-13 00:31N 38°20' E 015°42'  

Dump ship's entire track history